MDT,Max TemperatureF,Mean TemperatureF,Min TemperatureF,Max Dew PointF,MeanDew PointF,Min DewpointF,Max Humidity, Mean Humidity, Min Humidity, Max Sea Level PressureIn, Mean Sea Level PressureIn, Min Sea Level PressureIn, Max VisibilityMiles, Mean VisibilityMiles, Min VisibilityMiles, Max Wind SpeedMPH, Mean Wind SpeedMPH, Max Gust SpeedMPH,PrecipitationIn, CloudCover, Events, WindDirDegrees
2013-8-1,84,64,44,46,39,27,93,49,12,30.31,30.19,30.06,10,10,10,20,7,34,0.00,2,Rain-Thunderstorm,225
2013-8-2,78,61,44,50,34,19,100,46,11,30.23,30.19,30.11,10,10,10,20,7,25,0.00,1,Thunderstorm,294
2013-8-3,82,60,37,36,29,19,81,38,10,30.29,30.24,30.21,10,10,10,18,7,24,0.00,0,,265
2013-8-4,82,60,37,36,29,21,81,36,12,30.31,30.26,30.21,10,10,10,17,6,22,0.00,0,,298
2013-8-5,82,60,37,36,29,21,81,37,10,30.30,30.25,30.17,10,10,10,30,6,39,0.00,1,,287
2013-8-6,80,58,35,36,29,19,87,40,11,30.24,30.21,30.18,10,10,10,24,8,34,0.00,0,,293
2013-8-7,82,58,35,36,29,19,87,38,10,30.26,30.20,30.13,10,10,10,18,6,28,0.00,0,,301
2013-8-8,77,57,37,45,31,25,75,38,14,30.31,30.22,30.18,10,10,10,15,6,31,0.00,2,,258
2013-8-9,75,60,46,43,37,27,81,43,18,30.32,30.28,30.23,10,10,10,20,6,36,0.00,3,Rain-Thunderstorm,76
2013-8-10,75,60,44,41,35,27,81,44,18,30.36,30.32,30.29,10,10,10,22,4,29,0.00,2,,286
2013-8-11,77,57,37,37,32,23,87,40,13,30.39,30.33,30.26,10,10,10,23,6,30,0.00,3,Thunderstorm,284
2013-8-12,77,59,41,41,35,27,76,45,16,30.35,30.33,30.28,10,10,10,26,6,34,0.00,2,,312
2013-8-13,75,57,39,39,35,30,87,51,20,30.39,30.36,30.33,10,10,10,25,7,34,0.00,0,Thunderstorm,301
2013-8-14,78,56,35,39,33,25,93,48,14,30.40,30.33,30.24,10,10,2,18,6,36,0.00,1,Thunderstorm,298
2013-8-15,82,58,35,36,28,18,81,40,9,30.36,30.31,30.27,10,10,7,20,6,26,0.00,0,,306
2013-8-16,86,62,37,34,27,18,75,36,9,30.36,30.31,30.27,10,10,10,10,6,,0.00,0,,306
2013-8-17,86,62,39,37,30,23,70,33,12,30.35,30.30,30.22,10,10,10,20,7,38,0.00,1,,297
2013-8-18,84,64,44,37,34,28,71,35,14,30.34,30.29,30.24,10,10,10,18,8,23,0.00,1,Thunderstorm,296
2013-8-19,86,64,41,37,32,28,70,37,14,30.35,30.30,30.23,10,10,10,20,8,31,0.00,0,,295
2013-8-20,78,64,50,50,40,32,63,43,23,30.33,30.27,30.22,10,10,10,20,5,26,0.00,3,Rain-Thunderstorm,216
2013-8-21,77,64,50,50,45,37,88,58,27,30.34,30.31,30.26,10,10,10,15,5,20,0.00,4,Rain-Thunderstorm,295
2013-8-22,75,60,46,54,46,39,100,60,27,30.38,30.32,30.23,10,10,7,18,5,25,0.00,3,Rain-Thunderstorm,286
2013-8-23,77,62,48,54,48,39,100,70,26,30.27,30.21,30.16,10,10,4,22,4,26,0.00,5,Rain-Thunderstorm,305
2013-8-24,71,58,46,52,46,37,100,67,31,30.29,30.23,30.19,10,10,7,18,4,29,0.00,3,Rain-Thunderstorm,273
2013-8-25,77,62,46,46,41,34,93,54,22,30.35,30.29,30.24,10,10,10,15,3,28,0.00,3,,185
2013-8-26,73,60,46,50,44,39,93,60,31,30.35,30.31,30.27,10,10,10,15,4,25,0.00,3,Rain-Thunderstorm,255
2013-8-27,77,62,46,54,47,39,100,68,26,30.35,30.30,30.24,10,10,10,24,5,32,0.00,3,Rain-Thunderstorm,269
2013-8-28,80,62,44,54,45,32,100,60,17,30.35,30.30,30.26,10,10,10,16,5,22,0.00,2,,259
2013-8-29,80,61,42,46,42,37,93,56,23,30.41,30.37,30.34,10,10,10,23,6,30,0.00,2,Thunderstorm,299
2013-8-30,78,60,42,46,41,34,93,54,21,30.42,30.36,30.29,10,10,10,20,6,25,0.00,1,Rain-Thunderstorm,302
2013-8-31,80,58,37,37,31,21,87,42,11,30.35,30.30,30.24,10,10,10,21,6,26,0.00,0,,308